Weather History for Orange, TX

Change the Weather History Date:

Wednesday, February 20, 2013

  Actual Average Record
Temperature  
Mean Temperature 52 °F -  
Max Temperature 57 °F 65 °F 79 °F (1976)
Min Temperature 46 °F 44 °F 25 °F (1978)
Degree Days  
Heating Degree Days 14    
Growing Degree Days 2 (Base 50)    
Moisture  
Dew Point 41 °F    
Average Humidity 65    
Maximum Humidity 88    
Minimum Humidity 47    
Precipitation  
Precipitation 0.00 in - - ()
Sea Level Pressure  
Sea Level Pressure 30.08 in    
Wind  
Wind Speed 12 mph (East)    
Max Wind Speed 21 mph    
Max Gust Speed 26 mph    
Visibility 10 miles    
Events Rain    
Averages and records for this station are not official NWS values.
T = Trace of Precipitation, MM = Missing Value Source: NWS Daily Summary

Daily Weather History Graph

Daily Weather History Graph

Search for Another Location

Airport:

Trip Planner

Search our weather history database for the weather conditions in past years. The results will help you decide how hot, cold, wet, or windy it might be!

Date:

Astronomy

Feb. 20, 2013 Rise Set
Actual Time 6:50 AM CST 6:07 PM CST
Civil Twilight 6:25 AM CST 6:32 PM CST
Nautical Twilight 5:57 AM CST 7:00 PM CST
Astronomical Twilight 5:30 AM CST 7:28 PM CST
Moon 1:42 PM CST (2/20) 2:58 AM CST (2/20)
Length of Visible Light 12h 06m
Length of Day
11h 17m
Waxing Gibbous, 76% of the Moon is Illuminated
Feb 20
Waxing Gibbous
Feb 25
Full
Mar 4
Last Quarter
Mar 11
New
Mar 19
First Quarter

Hourly Weather History & Observations

Time (CST) Temp. Windchill Dew Point Humidity Pressure Visibility Wind Dir Wind Speed Gust Speed Precip Events Conditions
12:15 AM 51.8 °F - 39.2 °F 62% 30.19 in 10.0 mi ENE 9.2 mph - N/A   Clear
12:35 AM 51.8 °F - 37.4 °F 58% 30.18 in 10.0 mi NE 11.5 mph - N/A   Clear
12:55 AM 51.8 °F - 37.4 °F 58% 30.18 in 10.0 mi NE 10.4 mph - N/A   Clear
1:15 AM 51.8 °F - 37.4 °F 58% 30.17 in 10.0 mi NE 8.1 mph - N/A   Clear
1:35 AM 50.0 °F - 37.4 °F 62% 30.17 in 10.0 mi ENE 5.8 mph - N/A   Clear
1:55 AM 48.2 °F - 39.2 °F 71% 30.17 in 10.0 mi ENE 5.8 mph - N/A   Clear
2:15 AM 48.2 °F - 39.2 °F 71% 30.17 in 10.0 mi ENE 5.8 mph - N/A   Clear
2:35 AM 46.4 °F 43.5 °F 39.2 °F 76% 30.16 in 10.0 mi ENE 5.8 mph - N/A   Clear
2:55 AM 48.2 °F - 39.2 °F 71% 30.16 in 10.0 mi ENE 9.2 mph - N/A   Clear
3:15 AM 48.2 °F - 37.4 °F 66% 30.16 in 10.0 mi ENE 11.5 mph 16.1 mph N/A   Clear
3:35 AM 48.2 °F - 37.4 °F 66% 30.16 in 10.0 mi ENE 10.4 mph - N/A   Clear
3:55 AM 48.2 °F - 37.4 °F 66% 30.15 in 10.0 mi ENE 11.5 mph 17.3 mph N/A   Clear
4:15 AM 48.2 °F - 37.4 °F 66% 30.15 in 10.0 mi ENE 10.4 mph - N/A   Clear
4:35 AM 46.4 °F 41.9 °F 37.4 °F 71% 30.16 in 10.0 mi ENE 9.2 mph - N/A   Clear
4:55 AM 46.4 °F 41.9 °F 37.4 °F 71% 30.16 in 10.0 mi ENE 9.2 mph - N/A   Clear
5:15 AM 46.4 °F 41.9 °F 37.4 °F 71% 30.17 in 10.0 mi ENE 9.2 mph - N/A   Scattered Clouds
5:35 AM 46.4 °F 41.5 °F 37.4 °F 71% 30.17 in 10.0 mi ENE 10.4 mph - N/A   Mostly Cloudy
5:55 AM 46.4 °F 41.5 °F 35.6 °F 66% 30.18 in 10.0 mi East 10.4 mph - N/A   Scattered Clouds
6:15 AM 46.4 °F 42.4 °F 35.6 °F 66% 30.18 in 10.0 mi ENE 8.1 mph - N/A   Scattered Clouds
6:35 AM 46.4 °F 41.9 °F 33.8 °F 62% 30.18 in 10.0 mi ENE 9.2 mph - N/A   Clear
7:15 AM 46.4 °F 41.1 °F 32.0 °F 57% 30.18 in 10.0 mi East 11.5 mph - N/A   Clear
7:35 AM 48.2 °F - 32.0 °F 54% 30.18 in 10.0 mi East 10.4 mph - N/A   Clear
7:55 AM 48.2 °F - 32.0 °F 54% 30.19 in 10.0 mi East 13.8 mph - N/A   Clear
8:15 AM 48.2 °F - 32.0 °F 54% 30.21 in 10.0 mi East 12.7 mph 18.4 mph N/A   Clear
8:35 AM 50.0 °F - 32.0 °F 50% 30.20 in 10.0 mi ENE 11.5 mph 19.6 mph N/A   Scattered Clouds
8:55 AM 50.0 °F - 32.0 °F 50% 30.19 in 10.0 mi East 15.0 mph - N/A   Scattered Clouds
9:15 AM 50.0 °F - 32.0 °F 50% 30.14 in 10.0 mi ENE 20.7 mph 26.5 mph N/A   Clear
9:35 AM 51.8 °F - 32.0 °F 47% 30.18 in 10.0 mi East 13.8 mph 20.7 mph N/A   Clear
9:55 AM 51.8 °F - 32.0 °F 47% 30.17 in 10.0 mi East 16.1 mph 23.0 mph N/A   Scattered Clouds
10:15 AM 51.8 °F - 32.0 °F 47% 30.15 in 10.0 mi East 18.4 mph 24.2 mph N/A   Scattered Clouds
10:35 AM 51.8 °F - 33.8 °F 50% 30.18 in 10.0 mi East 9.2 mph - N/A   Scattered Clouds
10:55 AM 53.6 °F - 35.6 °F 51% 30.17 in 10.0 mi ESE 13.8 mph 19.6 mph N/A   Clear
11:15 AM 55.4 °F - 37.4 °F 51% 30.15 in 10.0 mi East 16.1 mph - N/A   Clear
11:35 AM 55.4 °F - 39.2 °F 54% 30.13 in 10.0 mi ENE 16.1 mph 20.7 mph N/A   Scattered Clouds
11:55 AM 55.4 °F - 39.2 °F 54% 30.12 in 10.0 mi East 19.6 mph - N/A   Clear
12:15 PM 55.4 °F - 41.0 °F 58% 30.10 in 10.0 mi East 18.4 mph 23.0 mph N/A   Clear
12:35 PM 55.4 °F - 41.0 °F 58% 30.09 in 10.0 mi East 18.4 mph 23.0 mph N/A   Clear
12:55 PM 55.4 °F - 42.8 °F 63% 30.08 in 10.0 mi East 16.1 mph 20.7 mph N/A   Scattered Clouds
1:15 PM 55.4 °F - 42.8 °F 63% 30.10 in 10.0 mi East 13.8 mph - N/A   Mostly Cloudy
1:35 PM 55.4 °F - 42.8 °F 63% 30.09 in 10.0 mi ENE 12.7 mph 18.4 mph N/A   Overcast
1:55 PM 55.4 °F - 42.8 °F 63% 30.08 in 10.0 mi East 13.8 mph - N/A   Overcast
2:15 PM 55.4 °F - 42.8 °F 63% 30.04 in 10.0 mi East 13.8 mph 21.9 mph N/A   Overcast
2:35 PM 55.4 °F - 44.6 °F 67% 30.04 in 10.0 mi East 13.8 mph - N/A   Overcast
2:55 PM 55.4 °F - 44.6 °F 67% 30.03 in 10.0 mi East 15.0 mph - N/A   Overcast
3:15 PM 55.4 °F - 44.6 °F 67% 30.03 in 10.0 mi East 12.7 mph - N/A   Overcast
3:35 PM 55.4 °F - 44.6 °F 67% 30.01 in 10.0 mi East 15.0 mph - N/A   Overcast
3:55 PM 55.4 °F - 44.6 °F 67% 30.01 in 10.0 mi East 17.3 mph 21.9 mph N/A   Overcast
4:15 PM 55.4 °F - 44.6 °F 67% 29.99 in 10.0 mi East 16.1 mph 20.7 mph N/A   Overcast
4:35 PM 57.2 °F - 46.4 °F 67% 29.98 in 10.0 mi East 15.0 mph 24.2 mph N/A   Overcast
4:55 PM 57.2 °F - 46.4 °F 67% 29.98 in 10.0 mi East 17.3 mph 23.0 mph N/A   Overcast
5:15 PM 57.2 °F - 46.4 °F 67% 29.98 in 10.0 mi East 12.7 mph - N/A   Overcast
5:35 PM 57.2 °F - 46.4 °F 67% 29.98 in 10.0 mi ESE 15.0 mph 21.9 mph N/A   Overcast
5:55 PM 57.2 °F - 48.2 °F 72% 29.98 in 10.0 mi East 13.8 mph 19.6 mph N/A   Overcast
6:15 PM 57.2 °F - 48.2 °F 72% 29.98 in 10.0 mi East 15.0 mph 18.4 mph N/A   Overcast
6:35 PM 57.2 °F - 50.0 °F 77% 29.98 in 10.0 mi East 11.5 mph 18.4 mph N/A   Overcast
6:55 PM 57.2 °F - 50.0 °F 77% 29.98 in 10.0 mi East 13.8 mph 19.6 mph N/A   Overcast
7:15 PM 57.2 °F - 50.0 °F 77% 29.98 in 10.0 mi East 15.0 mph 20.7 mph N/A   Overcast
7:35 PM 57.2 °F - 48.2 °F 72% 29.98 in 10.0 mi East 11.5 mph 20.7 mph N/A   Overcast
7:55 PM 57.2 °F - 46.4 °F 67% 29.97 in 10.0 mi East 15.0 mph 19.6 mph N/A   Overcast
8:15 PM 55.4 °F - 46.4 °F 72% 29.97 in 10.0 mi East 13.8 mph 20.7 mph N/A Rain Light Rain
8:35 PM 55.4 °F - 46.4 °F 72% 29.96 in 10.0 mi East 16.1 mph 20.7 mph N/A   Overcast
8:55 PM 55.4 °F - 46.4 °F 72% 29.96 in 10.0 mi East 15.0 mph 19.6 mph N/A   Overcast
9:15 PM 55.4 °F - 46.4 °F 72% 29.96 in 10.0 mi East 16.1 mph 23.0 mph N/A   Overcast
9:35 PM 55.4 °F - 46.4 °F 72% 29.96 in 10.0 mi East 19.6 mph 24.2 mph N/A   Overcast
9:55 PM 55.4 °F - 46.4 °F 72% 29.95 in 10.0 mi East 15.0 mph 21.9 mph N/A   Overcast
10:35 PM 57.2 °F - 50.0 °F 77% 29.95 in 10.0 mi East 12.7 mph 20.7 mph N/A   Overcast
10:55 PM 57.2 °F - 50.0 °F 77% 29.94 in 10.0 mi ESE 12.7 mph 23.0 mph N/A   Overcast
11:15 PM 55.4 °F - 51.8 °F 88% 29.94 in 10.0 mi ESE 13.8 mph 23.0 mph N/A   Overcast
11:35 PM 55.4 °F - 51.8 °F 88% 29.93 in 10.0 mi ESE 18.4 mph 25.3 mph N/A   Overcast
11:55 PM 55.4 °F - 51.8 °F 88% 29.92 in 10.0 mi ESE 18.4 mph 23.0 mph N/A   Overcast